EW6926 Weather Reports


time (UTC)temp
C
wind
direction
speed
KPH
gust
KPH
rain 1hr
cm
rain 24hr
cm
rain mn
cm
humidity
%
barometer
mb
20260504045005 8 278 0.0 1.6 0.00 0.00 0.00 60 1016.3
20260504044552 7 278 0.0 1.6 0.00 0.00 0.00 61 1016.4
20260504044005 7 278 0.0 0.0 0.00 0.00 0.00 61 1016.2
20260504043105 7 278 0.0 0.0 0.00 0.00 0.00 61 1016.2
20260504042005 8 278 0.0 1.6 0.00 0.00 0.00 61 1016.0
20260504041513 7 278 0.0 1.6 0.00 0.00 0.00 61 1016.1
20260504041005 8 278 0.0 0.0 0.00 0.00 0.00 61 1016.0
20260504040027 7 278 0.0 1.6 0.00 0.00 0.00 61 1016.1
20260504040008 8 278 0.0 1.6 0.00 0.00 0.00 61 1016.0
20260504035006 8 278 0.0 0.0 0.00 0.00 0.00 60 1016.0
20260504034542 8 278 0.0 0.0 0.00 0.00 0.00 60 1016.1
20260504034005 8 278 0.0 0.0 0.00 0.00 0.00 60 1016.0
20260504033052 8 278 0.0 0.0 0.00 0.00 0.00 59 1016.2
20260504033006 8 278 0.0 0.0 0.00 0.00 0.00 59 1016.1
20260504031504 8 278 0.0 0.0 0.00 0.00 0.00 57 1016.2
20260504031006 9 278 0.0 1.6 0.00 0.00 0.00 57 1016.1
20260504030016 8 278 0.0 1.6 0.00 0.00 0.00 57 1016.3
20260504030007 8 278 0.0 1.6 0.00 0.00 0.00 57 1016.2
20260504024529 8 278 0.0 0.0 0.00 0.00 0.00 57 1016.4
20260504024006 9 278 0.0 0.0 0.00 0.00 0.00 57 1016.2
20260504023042 9 278 0.0 0.0 0.00 0.00 0.00 56 1016.5
20260504022006 9 278 0.0 0.0 0.00 0.00 0.00 56 1016.4
20260504021555 9 278 0.0 0.0 0.00 0.00 0.00 55 1016.6
20260504020006 10 278 0.0 0.0 0.00 0.00 0.00 53 1016.5
20260504015005 10 278 0.0 0.0 0.00 0.00 0.00 53 1016.3
20260504014517 10 278 0.0 0.0 0.00 0.00 0.00 53 1016.4
20260504014005 10 278 0.0 0.0 0.00 0.00 0.00 53 1016.3
20260504013034 10 278 0.0 0.0 0.00 0.00 0.00 51 1016.4
20260504012005 11 278 0.0 0.0 0.00 0.00 0.00 50 1016.1
20260504011537 10 278 0.0 0.0 0.00 0.00 0.00 49 1016.3
20260504011005 11 278 0.0 0.0 0.00 0.00 0.00 49 1016.2
20260504010052 11 278 0.0 0.0 0.00 0.00 0.00 48 1016.3
20260504010006 11 278 0.0 0.0 0.00 0.00 0.00 48 1016.2
20260504005006 11 278 0.0 0.0 0.00 0.00 0.00 48 1016.2
20260504004602 11 278 0.0 0.0 0.00 0.00 0.00 47 1016.4
20260504004007 11 278 0.0 0.0 0.00 0.00 0.00 47 1016.2
20260504003014 11 278 0.0 1.6 0.00 0.00 0.00 47 1016.3
20260504003006 12 278 0.0 1.6 0.00 0.00 0.00 47 1016.1
20260504002006 12 278 0.0 3.2 0.00 0.00 0.00 46 1016.2
20260504001530 12 278 0.0 3.2 0.00 0.00 0.00 46 1016.3
20260504001005 12 250 0.0 3.2 0.00 0.00 0.00 45 1016.1
20260504000059 12 243 0.0 4.8 0.00 0.00 0.00 44 1016.2
20260504000006 12 243 0.0 4.8 0.00 0.00 0.00 43 1016.1
20260503235005 13 271 4.8 8.0 0.00 0.00 0.00 43 1016.2
20260503234557 12 255 1.6 9.7 0.00 0.00 0.00 42 1016.3
20260503234005 13 270 6.4 9.7 0.00 0.00 0.00 42 1016.2
20260503233104 13 265 3.2 12.9 0.00 0.00 0.00 41 1016.4
20260503233006 13 267 4.8 12.9 0.00 0.00 0.00 41 1016.3
20260503232005 13 253 3.2 14.5 0.00 0.00 0.00 40 1016.3
20260503231515 13 261 1.6 14.5 0.00 0.00 0.00 40 1016.4
20260503230033 14 250 3.2 19.3 0.00 0.00 0.00 39 1016.5
20260503225005 14 311 11.3 24.1 0.00 0.00 0.00 38 1016.4
20260503224542 14 275 9.7 24.1 0.00 0.00 0.00 38 1016.6
20260503224005 14 250 4.8 22.5 0.00 0.00 0.00 39 1016.4
20260503223057 14 266 11.3 19.3 0.00 0.00 0.00 39 1016.6
20260503222007 14 269 3.2 20.9 0.00 0.00 0.00 40 1016.5
20260503221505 13 254 8.0 20.9 0.00 0.00 0.00 39 1016.6
20260503221006 14 263 8.0 16.1 0.00 0.00 0.00 39 1016.6
20260503220021 13 284 6.4 12.9 0.00 0.00 0.00 40 1016.7
20260503215006 14 292 6.4 16.1 0.00 0.00 0.00 39 1016.5
20260503214536 14 275 1.6 12.9 0.00 0.00 0.00 39 1016.6
20260503213048 14 266 4.8 17.7 0.00 0.00 0.00 41 1016.4
20260503213005 14 276 1.6 12.9 0.00 0.00 0.00 41 1016.3
20260503212005 14 254 1.6 14.5 0.00 0.00 0.00 39 1016.4
20260503211620 14 302 6.4 19.3 0.00 0.00 0.00 39 1016.6
20260503211005 15 273 4.8 24.1 0.00 0.00 0.00 38 1016.5
20260503210009 13 257 8.0 16.1 0.00 0.00 0.00 40 1016.6
20260503210006 14 256 12.9 16.1 0.00 0.00 0.00 40 1016.5
20260503205006 14 300 4.8 19.3 0.00 0.00 0.00 38 1016.8
20260503204523 13 315 4.8 17.7 0.00 0.00 0.00 42 1016.8
20260503204005 13 255 6.4 17.7 0.00 0.00 0.00 40 1016.8
20260503203046 14 309 6.4 17.7 0.00 0.00 0.00 39 1017.0
20260503203005 14 253 3.2 17.7 0.00 0.00 0.00 39 1016.9
20260503202006 13 271 12.9 17.7 0.00 0.00 0.00 41 1017.1
20260503201547 13 292 4.8 19.3 0.00 0.00 0.00 41 1017.1
20260503200101 13 284 6.4 17.7 0.00 0.00 0.00 41 1017.3
20260503194513 13 261 4.8 20.9 0.00 0.00 0.00 40 1017.6
20260503194005 13 266 1.6 20.9 0.00 0.00 0.00 40 1017.6
20260503193022 13 274 8.0 22.5 0.00 0.00 0.00 40 1017.8
20260503192005 13 299 11.3 17.7 0.00 0.00 0.00 40 1017.9
20260503191537 13 240 4.8 19.3 0.00 0.00 0.00 42 1018.0
20260503191005 13 293 9.7 19.3 0.00 0.00 0.00 40 1018.0
20260503190049 13 271 8.0 17.7 0.00 0.00 0.00 42 1018.1
20260503190006 13 259 4.8 17.7 0.00 0.00 0.00 43 1018.0
20260503185005 13 214 8.0 16.1 0.00 0.00 0.00 41 1018.2
20260503184603 13 287 9.7 16.1 0.00 0.00 0.00 42 1018.4
20260503184005 13 336 12.9 16.1 0.00 0.00 0.00 41 1018.4
20260503183012 13 282 4.8 16.1 0.00 0.00 0.00 38 1018.6
20260503183005 13 297 4.8 16.1 0.00 0.00 0.00 38 1018.4
20260503181527 12 294 8.0 24.1 0.00 0.00 0.00 42 1018.7
20260503181005 12 9 6.4 19.3 0.00 0.00 0.00 41 1018.5
20260503180037 12 343 4.8 24.1 0.00 0.00 0.00 42 1018.9
20260503180006 12 295 6.4 24.1 0.00 0.00 0.00 43 1018.7
20260503175005 12 271 4.8 14.5 0.00 0.00 0.00 43 1018.7
20260503174552 12 253 3.2 12.9 0.00 0.00 0.00 42 1019.0
20260503173104 12 233 6.4 14.5 0.00 0.00 0.00 42 1019.1
20260503173005 12 260 6.4 14.5 0.00 0.00 0.00 42 1019.0
20260503172005 12 306 16.1 22.5 0.00 0.00 0.00 43 1019.2
20260503171515 12 302 4.8 17.7 0.00 0.00 0.00 45 1019.3
20260503151005 9 273 4.8 16.1 0.00 0.00 0.00 49 1020.4
20260503131010 6 324 6.4 12.9 0.00 0.00 0.00 73 1020.8
20260503110104 0 266 0.0 0.0 0.00 0.00 0.00 95 1020.1
20260503081522 2 290 1.6 4.8 0.00 0.00 0.00 86 1019.1
20260503081010 2 279 1.6 3.2 0.00 0.00 0.00 86 1019.0
20260503072005 2 296 0.0 0.0 0.00 0.00 0.00 88 1018.8
20260503071506 1 295 0.0 0.0 0.00 0.00 0.00 88 1018.9
20260503071005 2 296 0.0 0.0 0.00 0.00 0.00 88 1018.7
20260503055005 1 296 0.0 0.0 0.00 0.00 0.00 88 1018.8
20260503054519 1 295 0.0 0.0 0.00 0.00 0.00 88 1018.9
20260503054010 1 295 0.0 0.0 0.00 0.00 0.00 89 1018.8
20260503053034 1 295 0.0 0.0 0.00 0.00 0.00 89 1018.9
20260503053005 1 295 0.0 0.0 0.00 0.00 0.00 89 1018.8
20260503052005 1 296 0.0 0.0 0.00 0.00 0.00 88 1018.8
20260503051545 1 296 0.0 0.0 0.00 0.00 0.00 86 1019.0
20260503051005 2 295 0.0 0.0 0.00 0.00 0.00 85 1018.9
20260503050054 2 295 0.0 0.0 0.00 0.00 0.00 83 1019.1
20260503050006 2 295 0.0 0.0 0.00 0.00 0.00 83 1018.9